Home > Weather > Karaganda > Past weeks

Flag for Kazakhstan Weather for the Past 2 Weeks in Karaganda, Kazakhstan

Now
7 °F

Light snow. Broken clouds.


Feels Like: -11 °F
Forecast: -4 / 4 °F
Wind: 15 mph from West

Location: Karaganda

Current Time: Feb 9, 2016 at 11:59:24 AM

Latest Report: Feb 9, 2016 at 11:00 AM


Visibility: 3 mi

Pressure: 30.15 "Hg (28.02 "Hg at 555m altitude)

Humidity: 85%

Dew point: 3 °F

Location of KaragandaLocation

Historic Weather in Karaganda — Graph

°F

Karaganda Temperature Yesterday

Maximum temperature yesterday: 32 °F (at 12:30 AM)
Minimum temperature yesterday: 19 °F (at 11:00 PM)
Average temperature yesterday: 27 °F

High & Low Weather Summary for the Past Weeks

 TemperatureHumidityPressure
High34 °F (Feb 6, 1:30 PM)100% (Feb 5, 1:30 AM)30.54 "Hg (Feb 5, 1:30 AM)
Low-17 °F (Jan 27, 8:30 AM)51% (Feb 6, 1:30 PM)29.68 "Hg (Feb 8, 12:00 AM)
Average12 °F82%30.16 "Hg
* Reported Jan 25 10:30 AM — Feb 9 10:30 AM, Karaganda, Weather by CustomWeather, © 2016

Note: Actual official high and low records may vary slightly from our data, if they occured in-between our weather recording intervals... More about our weather records

Advertising

Karaganda Weather History for the Previous 24 Hours

 ConditionsComfort  
Time TempWeatherWind HumidityBarometerVisibility
10:30 AM
Tue, Feb 9
9 °FLight snow. Broken clouds.13 mph85%30.15 "HgN/A
9:30 AM9 °FSnow. Mostly cloudy.10 mph92%30.12 "Hg2 mi
9:00 AM9 °FLight snow. Mostly cloudy.8 mph92%30.12 "Hg3 mi
8:00 AM9 °FLow clouds.3 mph85%30.09 "Hg5 mi
7:30 AM9 °FLow clouds.6 mph85%30.09 "Hg5 mi
7:00 AM7 °FPassing clouds.8 mph92%30.07 "Hg5 mi
6:30 AM5 °FPassing clouds.10 mph85%30.07 "HgN/A
6:00 AM3 °FPassing clouds.6 mph85%30.04 "HgN/A
5:30 AM5 °FPassing clouds.13 mph85%30.04 "HgN/A
5:00 AM5 °FPassing clouds.8 mph92%30.01 "HgN/A
4:30 AM9 °FPassing clouds.6 mph92%29.98 "HgN/A
4:00 AM10 °FPassing clouds.8 mph92%29.98 "HgN/A
3:30 AM12 °FPassing clouds.6 mph85%29.95 "Hg5 mi
3:00 AM10 °FPassing clouds.8 mph92%29.95 "HgN/A
2:30 AM12 °FPassing clouds.8 mph85%29.92 "HgN/A
2:00 AM14 °FPassing clouds.10 mph92%29.92 "HgN/A
1:30 AM18 °FLight snow. Overcast.13 mph86%29.89 "HgN/A
1:00 AM18 °FLight snow. Mostly cloudy.10 mph93%29.89 "Hg4 mi
12:30 AM18 °FSnow. Overcast.15 mph93%29.86 "Hg2 mi
12:00 AM19 °FSnow. Overcast.13 mph93%29.86 "Hg2 mi
11:30 PM
Mon, Feb 8
19 °FSnow. Mostly cloudy.15 mph93%29.83 "Hg1 mi
11:00 PM19 °FSnow. Mostly cloudy.15 mph93%29.83 "Hg1 mi
10:30 PM21 °FSnow. Overcast.15 mph93%29.80 "Hg1 mi
10:00 PM21 °FSnow. Overcast.13 mph93%29.80 "Hg1 mi
9:30 PM23 °FSnow. Overcast.15 mph93%29.77 "Hg1 mi
9:00 PM25 °FSnow. Overcast.10 mph93%29.77 "Hg1 mi
8:30 PM25 °FSnow. Overcast.8 mph93%29.77 "Hg1 mi
8:00 PM25 °FHeavy snow. Overcast.8 mph93%29.77 "Hg1 mi
7:30 PM25 °FHeavy snow. Overcast.3 mph93%29.77 "Hg1 mi
7:00 PM25 °FSnow. Ice fog.3 mph93%29.74 "Hg2 mi
6:30 PM25 °FLight snow. Low clouds.6 mph93%29.74 "Hg4 mi
6:00 PM25 °FLight snow. Low clouds.8 mph93%29.77 "Hg6 mi
5:30 PM25 °FLight snow. Ice fog.10 mph100%29.74 "Hg3 mi
5:00 PM25 °FLight snow. Ice fog.10 mph100%29.74 "Hg1 mi
4:30 PM27 °FIce fog.13 mph93%29.74 "Hg1 mi
4:00 PM27 °FIce fog.10 mph93%29.71 "Hg3 mi
3:30 PM28 °FIce fog.13 mph93%29.74 "Hg2 mi
3:00 PM28 °FIce fog.10 mph93%29.71 "Hg3 mi
2:30 PM28 °FLow clouds.10 mph93%29.74 "Hg6 mi
2:00 PM30 °FLow clouds.10 mph86%29.74 "Hg4 mi
1:30 PM30 °FIce fog.8 mph93%29.74 "Hg3 mi
1:00 PM28 °FIce fog.13 mph100%29.74 "Hg2 mi
12:30 PM28 °FIce fog.13 mph100%29.74 "Hg2 mi
12:00 PM28 °FIce fog.10 mph100%29.74 "Hg1 mi
11:30 AM28 °FIce fog.10 mph93%29.74 "Hg1 mi
11:00 AM28 °FIce fog.13 mph93%29.71 "Hg1 mi
Weather by CustomWeather, © 2016

See weather overviewHow to use our weather pages